STARLINK-11146 [DTC]

Last updated on Sat Sep 28 2024 00:02:03 GMT+0000 (Coordinated Universal Time)

1 60729U 24152K 24271.52677241 .00002555 00000+0 25941-4 0 9999 2 60729 53.1579 199.7048 0001320 84.3328 275.7840 15.69711829 6017
UTC large
Height (km)
Speed (km/s)
/
Latitude / Longitude
Inclination (degrees)
Orbital Period (minutes)
Azimuth
Elevation
Range (km)
Doppler Factor

Next 0 passes for location: London (51.5072 / 0.1276)

Sorry there are no passes over London.